Weather History for Hot Springs, AR

Change the Weather History Date:

Thursday, April 18, 2013

  Actual Average Record
Temperature  
Mean Temperature 60 °F -  
Max Temperature 75 °F 75 °F 92 °F (1987)
Min Temperature 45 °F 52 °F 33 °F (1999)
Degree Days  
Heating Degree Days 5    
Growing Degree Days 10 (Base 50)    
Moisture  
Dew Point 57 °F    
Average Humidity 85    
Maximum Humidity 96    
Minimum Humidity 63    
Precipitation  
Precipitation 1.19 in - - ()
Sea Level Pressure  
Sea Level Pressure 29.76 in    
Wind  
Wind Speed 9 mph (West)    
Max Wind Speed 20 mph    
Max Gust Speed 33 mph    
Visibility 7 miles    
Events Fog , Rain , Thunderstorm    
Averages and records for this station are not official NWS values.
T = Trace of Precipitation, MM = Missing Value Source: NWS Daily Summary

Daily Weather History Graph

Daily Weather History Graph

Search for Another Location

Airport:

Trip Planner

Search our weather history database for the weather conditions in past years. The results will help you decide how hot, cold, wet, or windy it might be!

Date:

Astronomy

Apr. 18, 2013 Rise Set
Actual Time 6:36 AM CDT 7:46 PM CDT
Civil Twilight 6:10 AM CDT 8:13 PM CDT
Nautical Twilight 5:39 AM CDT 8:44 PM CDT
Astronomical Twilight 5:07 AM CDT 9:16 PM CDT
Moon 12:51 PM CDT (4/18) 1:58 AM CDT (4/18)
Length of Visible Light 14h 02m
Length of Day
13h 09m
First Quarter, 52% of the Moon is Illuminated
Apr 18
First Quarter
Apr 25
Full
May 2
Last Quarter
May 9
New
May 17
First Quarter

Hourly Weather History & Observations

Time (CDT) Temp. Windchill Dew Point Humidity Pressure Visibility Wind Dir Wind Speed Gust Speed Precip Events Conditions
12:53 AM 75.9 °F - 66.0 °F 71% 29.74 in 10.0 mi Variable 6.9 mph 26.5 mph N/A   Mostly Cloudy
1:01 AM 75.2 °F - 66.2 °F 73% 29.76 in 10.0 mi South 9.2 mph 19.6 mph N/A   Scattered Clouds
1:53 AM 75.9 °F - 66.0 °F 71% 29.73 in 10.0 mi South 19.6 mph 33.4 mph N/A   Overcast
2:53 AM 75.9 °F - 66.0 °F 71% 29.69 in 10.0 mi South 16.1 mph 28.8 mph N/A   Overcast
3:53 AM 75.0 °F - 66.0 °F 73% 29.68 in 10.0 mi South 9.2 mph 18.4 mph N/A   Overcast
4:53 AM 73.9 °F - 66.0 °F 76% 29.68 in 10.0 mi SSE 5.8 mph - 0.00 in   Overcast
5:53 AM 73.0 °F - 66.9 °F 81% 29.69 in 10.0 mi SSE 5.8 mph - N/A   Overcast
6:53 AM 73.0 °F - 66.9 °F 81% 29.68 in 10.0 mi SSE 10.4 mph 17.3 mph 0.00 in   Overcast
7:53 AM 73.0 °F - 66.9 °F 81% 29.70 in 6.0 mi South 9.2 mph - 0.01 in Rain Light Rain
8:04 AM 71.6 °F - 66.2 °F 83% 29.73 in 1.8 mi South 9.2 mph - 0.06 in Rain Heavy Rain
8:14 AM 69.8 °F - 68.0 °F 94% 29.73 in 0.8 mi WSW 11.5 mph - 0.24 in Rain Rain
8:19 AM 69.8 °F - 68.0 °F 94% 29.74 in 2.0 mi South 8.1 mph - 0.26 in Rain Light Rain
8:21 AM 69.8 °F - 68.0 °F 94% 29.73 in 3.0 mi South 8.1 mph - 0.26 in Rain Rain
8:53 AM 71.1 °F - 66.9 °F 87% 29.72 in 9.0 mi SSW 6.9 mph 18.4 mph 0.26 in Rain Light Rain
9:53 AM 71.1 °F - 68.0 °F 90% 29.71 in 10.0 mi South 6.9 mph - 0.01 in   Mostly Cloudy
10:45 AM 71.6 °F - 68.0 °F 88% 29.70 in 10.0 mi SSE 5.8 mph - N/A   Mostly Cloudy
10:53 AM 71.1 °F - 68.0 °F 90% 29.69 in 10.0 mi SSE 6.9 mph - 0.00 in Rain , Thunderstorm Light Rain
11:08 AM 68.0 °F - 64.4 °F 88% 29.74 in 0.8 mi West 18.4 mph 33.4 mph 0.15 in Rain , Thunderstorm Heavy Thunderstorms and Rain
11:14 AM 66.2 °F - 64.4 °F 94% 29.74 in 0.2 mi WSW 8.1 mph 33.4 mph 0.31 in Fog , Rain , Thunderstorm Heavy Thunderstorms and Rain
11:18 AM 66.2 °F - 64.4 °F 94% 29.74 in 0.5 mi West 5.8 mph - 0.36 in Fog , Rain , Thunderstorm Heavy Thunderstorms and Rain
11:25 AM 66.2 °F - 64.4 °F 94% 29.74 in 1.0 mi SSW 4.6 mph - 0.41 in Rain , Thunderstorm Heavy Thunderstorms and Rain
11:44 AM 66.2 °F - 64.4 °F 94% 29.73 in 1.8 mi Calm Calm - 0.49 in Rain , Thunderstorm Heavy Thunderstorms and Rain
11:53 AM 66.0 °F - 64.9 °F 96% 29.71 in 2.5 mi Calm Calm - 0.51 in Rain , Thunderstorm Rain
12:01 PM 66.2 °F - 64.4 °F 94% 29.73 in 2.0 mi Calm Calm - 0.02 in Rain , Thunderstorm Rain
12:08 PM 64.4 °F - 62.6 °F 94% 29.73 in 2.5 mi NNW 18.4 mph 28.8 mph 0.04 in Rain Rain
12:13 PM 60.8 °F - 57.2 °F 88% 29.73 in 3.0 mi NNW 10.4 mph 28.8 mph 0.04 in Rain Rain
12:20 PM 60.8 °F - 57.2 °F 88% 29.74 in 6.0 mi NNW 10.4 mph 21.9 mph 0.05 in Rain Light Rain
12:36 PM 57.2 °F - 55.4 °F 94% 29.73 in 4.0 mi NW 9.2 mph 20.7 mph 0.09 in Rain Rain
12:53 PM 57.0 °F - 55.0 °F 93% 29.71 in 4.0 mi Variable 5.8 mph 18.4 mph 0.14 in Rain Rain
1:09 PM 57.2 °F - 55.4 °F 94% 29.71 in 10.0 mi NW 8.1 mph 18.4 mph 0.01 in Rain Light Rain
1:40 PM 55.4 °F - 53.6 °F 94% 29.74 in 10.0 mi NW 5.8 mph 17.3 mph 0.01 in Rain Light Rain
1:53 PM 54.0 °F - 52.0 °F 93% 29.75 in 8.0 mi WNW 15.0 mph 21.9 mph 0.01 in Rain Light Rain
2:29 PM 50.0 °F - 48.2 °F 94% 29.80 in 2.5 mi NNW 8.1 mph 17.3 mph 0.11 in Rain Rain
2:36 PM 50.0 °F - 48.2 °F 94% 29.75 in 4.0 mi North 8.1 mph - 0.13 in Rain Rain
2:53 PM 48.9 °F - 46.9 °F 93% 29.76 in 7.0 mi Variable 6.9 mph 16.1 mph 0.15 in Rain Light Rain
3:53 PM 48.0 °F - 45.0 °F 89% 29.76 in 10.0 mi NNW 13.8 mph 20.7 mph 0.08 in Rain Light Rain
4:53 PM 46.9 °F - 43.0 °F 86% 29.82 in 10.0 mi WNW 10.4 mph 21.9 mph 0.02 in   Overcast
5:07 PM 46.4 °F 40.1 °F 42.8 °F 87% 29.83 in 10.0 mi NW 15.0 mph 23.0 mph N/A   Overcast
5:53 PM 46.9 °F - 42.1 °F 83% 29.81 in 10.0 mi NNW 9.2 mph 17.3 mph N/A   Overcast
6:53 PM 46.9 °F - 39.9 °F 77% 29.86 in 10.0 mi NW 6.9 mph 17.3 mph 0.00 in Rain Light Rain
7:53 PM 46.9 °F - 39.9 °F 77% 29.88 in 10.0 mi NW 8.1 mph 16.1 mph 0.00 in   Overcast
8:15 PM 46.4 °F 42.9 °F 39.2 °F 76% 29.89 in 10.0 mi Variable 6.9 mph - N/A   Overcast
8:53 PM 46.0 °F 39.9 °F 36.0 °F 68% 29.91 in 10.0 mi NW 13.8 mph 25.3 mph N/A   Overcast
9:53 PM 45.0 °F 38.5 °F 34.0 °F 65% 29.96 in 10.0 mi NW 13.8 mph 28.8 mph N/A   Overcast
10:53 PM 45.0 °F 39.3 °F 34.0 °F 65% 29.97 in 10.0 mi NW 11.5 mph 19.6 mph N/A   Overcast
11:53 PM 45.0 °F 40.6 °F 33.1 °F 63% 29.98 in 10.0 mi WNW 8.1 mph - N/A   Overcast